TIME,DELAY(SENSOR),PRES,OXYGEN,RAWTEMP,T(OPTODE),TCPHASE,FLUOR,BETA(BETA700),BETA(BETA412),BETA(BETA440),CDOM,C(CSC),ED(ED412.20),ED(ED444.00),ED(ED489.60),ED(ED554.30),LU(LU412.10),LU(LU443.90),LU(LU489.70),LU(LU554.70),COMP,TILTX,TILTY,CHECK
1369109027,5809,879.4799804687500000,31.6142406463623050,560.8175048828125000,4.4605579376220700,56.8333091735839840,55,99,101,78,80,15642,0,0,0,0,2147120512,2147768932,2147567844,2147569152,2573,2,13,21652
1369112623,5810,938.8499755859375000,36.9032707214355500,568.3032226562500000,4.2282772064208980,56.0667304992675800,55,98,100,78,81,15625,0,0,0,0,2147120832,2147769024,2147572425,2147567113,100,2,13,64031
1369116223,5810,950.9699707031250000,37.5975189208984400,569.2098999023438000,4.2001109123229980,55.9669303894043000,55,96,99,78,81,15624,0,0,0,0,2147122139,2147771126,2147571309,2147568630,630,2,13,16793
1369119823,5811,984.6900024414062000,37.2732696533203100,572.1033935546875000,4.1101779937744140,56.0488700866699200,54,100,100,77,81,15619,0,0,0,0,2147122907,2147774354,2147570075,2147566756,3528,2,13,8796
1369123423,5810,990.9799804687500000,36.8321113586425800,571.6763916015625000,4.1234531402587890,56.1180381774902340,56,97,99,77,81,15551,0,0,0,0,2147122020,2147775378,2147572562,2147568118,22,2,13,26446
1369127023,5811,998.3200073242188000,37.2911186218261700,570.9691772460938000,4.1454367637634280,56.0331611633300800,55,98,100,77,81,15511,0,0,0,0,2147123584,2147775442,2147567835,2147568192,3452,2,13,24207
1369130623,5810,998.9000244140625000,37.3509483337402340,571.4525146484375000,4.1304149627685550,56.0344200134277340,54,98,98,78,81,15498,0,0,0,0,2147124955,2147773440,2147570285,2147564361,240,2,13,1892
1369134223,5808,998.2600097656250000,36.5669784545898440,572.7570190429688000,4.0898528099060060,56.1640815734863300,55,98,100,78,81,15510,0,0,0,0,2147123300,2147770587,2147569974,2147565065,3271,2,13,4436
1369137823,5811,998.9400024414062000,36.5916709899902340,572.3267822265625000,4.1032309532165530,56.1601295471191400,55,98,101,78,80,15510,0,0,0,0,2147123977,2147773440,2147570368,2147567798,3495,2,13,34673
1369141423,5808,1000.3900146484375000,36.3646697998046900,572.4760742187500000,4.0985870361328125,56.1916389465332000,55,97,98,77,82,15509,0,0,0,0,2147122569,2147774710,2147568777,2147564013,110,2,13,13603
1369145023,5811,993.7899780273438000,36.6972885131835940,572.7130737304688000,4.0912170410156250,56.1430091857910160,55,98,99,77,81,15510,0,0,0,0,2147121801,2147771556,2147572196,2147566390,2805,2,13,42712
1369148623,5809,994.4199829101562000,37.7279396057128900,573.4840698242188000,4.0672402381896970,55.9921493530273440,56,98,101,78,83,15506,0,0,0,0,2147121014,2147768969,2147569728,2147569645,197,2,13,11748
1369152223,5811,1000.4500122070312000,39.8845291137695300,573.4484863281250000,4.0683460235595700,55.6674308776855500,55,100,100,78,82,15491,0,0,0,0,2147122313,2147770066,2147570413,2147564352,3374,2,13,29778
1369155823,5812,993.3900146484375000,37.5571098327636700,573.8706054687500000,4.0552158355712890,56.0221290588378900,55,99,100,78,80,15507,0,0,0,0,2147119561,2147771812,2147568493,2147566555,3439,2,13,14093
1369159423,5807,1001.2299804687500000,38.1443786621093750,573.5161743164062000,4.0662422180175780,55.9325599670410160,54,98,99,77,81,15507,0,0,0,0,2147123501,2147769984,2147569755,2147565750,347,2,13,34086
1369163023,5809,1004.6900024414062000,37.1342391967773440,572.6145019531250000,4.0942859649658200,56.0757904052734400,55,99,99,78,80,15510,0,0,0,0,2147124562,2147774409,2147570002,2147564973,388,2,13,64351
1369166623,5811,1004.4899902343750000,37.0154609680175800,572.8787841796875000,4.0860629081726070,56.0956993103027340,55,96,98,79,82,15508,0,0,0,0,2147123849,2147773522,2147570715,2147565046,483,2,13,44854
1369170223,5808,1003.9199829101562000,35.7303314208984400,572.7827148437500000,4.0890560150146480,56.2938499450683600,54,98,99,77,81,15507,0,0,0,0,2147124315,2147772516,2147568731,2147566400,402,2,13,61661
1369173823,5811,1005.3200073242188000,37.1688613891601560,573.0333862304688000,4.0812568664550780,56.0776481628418000,55,98,99,79,82,15508,0,0,0,0,2147120996,2147771318,2147568886,2147566464,3542,2,13,21946
1369177423,5811,997.6199951171875000,39.5234603881835940,574.0750122070312000,4.0488591194152830,55.7282600402832000,54,98,100,77,80,15507,0,0,0,0,2147126628,2147772745,2147572690,2147563894,173,2,13,55702
1369181023,5810,999.5100097656250000,38.2502784729003900,574.7960815429688000,4.0264210700988770,55.9337806701660160,53,99,99,78,81,15491,0,0,0,0,2147122752,2147777225,2147569755,2147563154,3468,2,13,58714
1369184623,5808,997.0499877929688000,37.8816108703613300,575.0128784179688000,4.0196738243103030,55.9857406616210940,56,97,100,79,82,15505,0,0,0,0,2147120073,2147770962,2147568000,2147565504,2,2,13,23144
1369188223,5808,1001.2100219726562000,38.8694305419921900,574.6945800781250000,4.0295810699462890,55.8373298645019500,55,97,101,78,82,15507,0,0,0,0,2147120365,2147770788,2147568310,2147569243,3455,2,13,55019
1369191823,5810,998.9400024414062000,41.1156997680664060,574.3093261718750000,4.0415668487548830,55.4967803955078100,55,98,100,79,80,15506,0,0,0,0,2147122477,2147770852,2147572105,2147567424,3279,2,13,30951
1369195423,5811,1006.7899780273438000,40.9751701354980500,574.7329101562500000,4.0283889770507810,55.5181007385253900,55,99,99,77,80,15504,0,0,0,0,2147120192,2147769298,2147572096,2147566820,2420,2,13,42493
1369199023,5809,1009.7899780273438000,39.8658218383789060,573.6182250976562000,4.0630679130554200,55.6729011535644500,55,97,101,78,82,15506,0,0,0,0,2147120877,2147769408,2147571529,2147563355,150,2,13,57638
1369202623,5810,1008.2000122070312000,38.1113090515136700,573.2606811523438000,4.0741858482360840,55.9370117187500000,55,98,99,78,82,15502,0,0,0,0,2147120365,2147772534,2147569005,2147565787,21,3,13,13816
1369206223,5812,1008.6699829101562000,39.6556091308593750,573.2642211914062000,4.0740799903869630,55.6994514465332000,55,98,100,78,82,15506,0,0,0,0,2147120402,2147769362,2147568832,2147565741,35,2,13,33634
1369209823,5808,1009.0000000000000000,38.2152595520019500,573.1932983398438000,4.0762839317321780,55.9146308898925800,55,98,99,78,81,15500,0,0,0,0,2147123602,2147771757,2147567049,2147567268,285,2,13,62075
1369213423,5810,1011.7600097656250000,38.7369308471679700,572.4841918945312000,4.0983371734619140,55.8285903930664060,54,99,98,78,82,15501,0,0,0,0,2147119241,2147772708,2147565997,2147566409,199,2,13,27516
1369217023,5809,1006.2800292968750000,39.5617103576660160,573.3223266601562000,4.0722708702087400,55.7144584655761700,54,100,99,77,82,15504,0,0,0,0,2147120475,2147770468,2147567606,2147565714,464,2,13,41599
1369220623,5810,1007.1599731445312000,39.5804100036621100,574.2034912109375000,4.0448608398437500,55.7206611633300800,54,99,100,77,82,15498,0,0,0,0,2147122742,2147771958,2147568128,2147565412,68,2,13,18951
1369224223,5809,1003.4299926757812000,38.0216903686523440,574.7692260742188000,4.0272579193115230,55.9621810913085940,54,97,99,78,80,15499,0,0,0,0,2147122386,2147767625,2147570176,2147565394,3354,3,13,48765
1369227823,5810,1004.4699707031250000,39.5257987976074200,574.0025024414062000,4.0511131286621090,55.7318000793457000,54,98,100,78,81,15497,0,0,0,0,2147121627,2147769069,2147570514,2147567012,489,2,13,59996
1369231423,5809,1000.1300048828125000,38.2608489990234400,574.7382812500000000,4.0282192230224610,55.9274597167968750,55,100,98,78,81,15478,0,0,0,0,2147123300,2147767378,2147570358,2147567451,5,2,13,56799
1369235023,5807,1002.7399902343750000,40.0338783264160160,575.4943237304688000,4.0046939849853520,55.6701011657714840,55,97,99,77,81,15498,0,0,0,0,2147120886,2147777600,2147568164,2147566171,3593,2,13,27071
1369238623,5810,1008.2999877929688000,40.0361099243164060,574.2266235351562000,4.0441398620605470,55.6511993408203100,54,97,99,79,81,15496,0,0,0,0,2147123346,2147773129,2147573696,2147566994,3455,2,13,18213
1369242223,5811,998.0900268554688000,38.7447319030761700,574.7208251953125000,4.0287628173828125,55.8553199768066400,55,98,101,77,81,15494,0,0,0,0,2147121389,2147775085,2147572498,2147565997,2913,2,13,13246
1369245823,5811,1010.3200073242188000,40.0061988830566400,573.9061889648438000,4.0541100502014160,55.6544494628906250,56,97,100,78,81,15490,0,0,0,0,2147123657,2147772800,2147569664,2147568219,2968,2,13,32295
1369249423,5808,1012.9899902343750000,37.3330917358398440,573.3142700195312000,4.0725188255310060,56.0567588806152340,55,98,100,77,82,15489,0,0,0,0,2147123337,2147773677,2147567762,2147569517,1973,2,13,34514
1369252855,5808,1010.3400268554688000,36.8548316955566400,573.1702880859375000,4.0770001411437990,56.1298217773437500,54,97,99,78,82,15488,0,0,0,0,2147120905,2147771510,2147569462,2147569654,913,2,13,7554
